EA3CTN-13 Weather Reports


Display with metric or nautical units.
time (UTC)temp
F
wind
direction
speed
MPH
gust
MPH
rain 1hr
in
rain 24hr
in
rain mn
in
humidity
%
barometer
mb
20260831174713 87 0.0 0.0 0.00 0.00 0.00 45 1018.6
20260831173913 87 0.0 0.0 0.00 0.00 0.00 45 1018.7
20260831173113 87 0.0 0.0 0.00 0.00 0.00 44 1018.6
20260831172313 87 0.0 0.0 0.00 0.00 0.00 43 1018.6
20260831171513 88 0.0 0.0 0.00 0.00 0.00 42 1018.6
20260831170713 88 0.0 0.0 0.00 0.00 0.00 41 1018.6
20260831165913 89 0.0 0.0 0.00 0.00 0.00 41 1018.6
20260831165113 90 0.0 0.0 0.00 0.00 0.00 40 1018.5
20260831164313 91 0.0 0.0 0.00 0.00 0.00 38 1018.6
20260831163513 94 0.0 0.0 0.00 0.00 0.00 35 1018.5
20260831162713 96 0.0 0.0 0.00 0.00 0.00 34 1018.6
20260831161913 96 0.0 0.0 0.00 0.00 0.00 34 1018.6
20260831161113 95 0.0 0.0 0.00 0.00 0.00 36 1018.7
20260831160313 92 0.0 0.0 0.00 0.00 0.00 39 1018.8
20260831155513 88 0.0 0.0 0.00 0.00 0.00 43 1018.9
20260831154713 88 0.0 0.0 0.00 0.00 0.00 45 1019.0
20260831153913 88 0.0 0.0 0.00 0.00 0.00 44 1019.0
20260831153114 87 0.0 0.0 0.00 0.00 0.00 46 1019.1
20260831152313 87 0.0 0.0 0.00 0.00 0.00 47 1019.0
20260831151513 87 0.0 0.0 0.00 0.00 0.00 48 1019.0
20260831150713 86 0.0 0.0 0.00 0.00 0.00 50 1019.0
20260831145913 86 0.0 0.0 0.00 0.00 0.00 50 1019.0
20260831145113 86 0.0 0.0 0.00 0.00 0.00 50 1019.0
20260831144313 86 0.0 0.0 0.00 0.00 0.00 49 1018.9
20260831143513 87 0.0 0.0 0.00 0.00 0.00 50 1019.0
20260831142713 87 0.0 0.0 0.00 0.00 0.00 50 1019.0
20260831141913 87 0.0 0.0 0.00 0.00 0.00 50 1019.1
20260831141113 87 0.0 0.0 0.00 0.00 0.00 50 1019.1
20260831140313 87 0.0 0.0 0.00 0.00 0.00 51 1019.2
20260831135513 86 0.0 0.0 0.00 0.00 0.00 50 1019.1
20260831134713 86 0.0 0.0 0.00 0.00 0.00 50 1019.1
20260831133913 86 0.0 0.0 0.00 0.00 0.00 50 1019.2
20260831133113 87 0.0 0.0 0.00 0.00 0.00 51 1019.2
20260831132313 87 0.0 0.0 0.00 0.00 0.00 50 1019.3
20260831131513 87 0.0 0.0 0.00 0.00 0.00 51 1019.2
20260831130713 87 0.0 0.0 0.00 0.00 0.00 51 1019.1
20260831125913 87 0.0 0.0 0.00 0.00 0.00 51 1019.1
20260831125113 87 0.0 0.0 0.00 0.00 0.00 51 1019.3
20260831124313 87 0.0 0.0 0.00 0.00 0.00 49 1019.4
20260831123513 87 0.0 0.0 0.00 0.00 0.00 52 1019.3
20260831122713 86 0.0 0.0 0.00 0.00 0.00 53 1019.3
20260831121913 86 0.0 0.0 0.00 0.00 0.00 53 1019.4
20260831121113 86 0.0 0.0 0.00 0.00 0.00 53 1019.4
20260831120313 85 0.0 0.0 0.00 0.00 0.00 54 1019.5
20260831115513 86 0.0 0.0 0.00 0.00 0.00 53 1019.6
20260831114713 85 0.0 0.0 0.00 0.00 0.00 53 1019.5
20260831113913 85 0.0 0.0 0.00 0.00 0.00 53 1019.7
20260831113113 85 0.0 0.0 0.00 0.00 0.00 53 1019.6
20260831112313 85 0.0 0.0 0.00 0.00 0.00 52 1019.6
20260831111513 85 0.0 0.0 0.00 0.00 0.00 53 1019.5
20260831110713 85 0.0 0.0 0.00 0.00 0.00 52 1019.6
20260831105913 85 0.0 0.0 0.00 0.00 0.00 52 1019.6
20260831105113 85 0.0 0.0 0.00 0.00 0.00 52 1019.6
20260831104313 85 0.0 0.0 0.00 0.00 0.00 52 1019.6
20260831103513 85 0.0 0.0 0.00 0.00 0.00 52 1019.6
20260831102713 85 0.0 0.0 0.00 0.00 0.00 51 1019.6
20260831101913 85 0.0 0.0 0.00 0.00 0.00 52 1019.6
20260831101113 85 0.0 0.0 0.00 0.00 0.00 50 1019.6
20260831100313 85 0.0 0.0 0.00 0.00 0.00 51 1019.6
20260831095513 85 0.0 0.0 0.00 0.00 0.00 50 1019.6
20260831094713 85 0.0 0.0 0.00 0.00 0.00 49 1019.6
20260831093913 85 0.0 0.0 0.00 0.00 0.00 49 1019.6
20260831093113 85 0.0 0.0 0.00 0.00 0.00 47 1019.5
20260831092313 85 0.0 0.0 0.00 0.00 0.00 47 1019.5
20260831091513 85 0.0 0.0 0.00 0.00 0.00 46 1019.6
20260831090713 85 0.0 0.0 0.00 0.00 0.00 46 1019.5
20260831085913 85 0.0 0.0 0.00 0.00 0.00 46 1019.5
20260831085113 85 0.0 0.0 0.00 0.00 0.00 45 1019.5
20260831084313 84 0.0 0.0 0.00 0.00 0.00 47 1019.5
20260831083513 84 0.0 0.0 0.00 0.00 0.00 46 1019.3
20260831082713 84 0.0 0.0 0.00 0.00 0.00 46 1019.3
20260831081913 84 0.0 0.0 0.00 0.00 0.00 52 1019.2
20260831081113 84 0.0 0.0 0.00 0.00 0.00 52 1019.3
20260831080313 84 0.0 0.0 0.00 0.00 0.00 47 1019.2
20260831075513 84 0.0 0.0 0.00 0.00 0.00 46 1019.1
20260830220312 83 0.0 0.0 0.00 0.00 0.00 37 1016.9
20260830215512 83 0.0 0.0 0.00 0.00 0.00 38 1016.9
20260830214712 84 0.0 0.0 0.00 0.00 0.00 38 1016.9
20260830213912 84 0.0 0.0 0.00 0.00 0.00 38 1016.8
20260830213112 84 0.0 0.0 0.00 0.00 0.00 39 1016.8
20260830212312 84 0.0 0.0 0.00 0.00 0.00 38 1016.6
20260830211513 84 0.0 0.0 0.00 0.00 0.00 39 1016.6
20260830210712 84 0.0 0.0 0.00 0.00 0.00 39 1016.6
20260830205912 84 0.0 0.0 0.00 0.00 0.00 44 1016.7
20260830205112 84 0.0 0.0 0.00 0.00 0.00 40 1016.6
20260830204312 84 0.0 0.0 0.00 0.00 0.00 40 1016.7
20260830203512 84 0.0 0.0 0.00 0.00 0.00 42 1016.6
20260830202712 84 0.0 0.0 0.00 0.00 0.00 43 1016.5
20260830201912 84 0.0 0.0 0.00 0.00 0.00 43 1016.5
20260830201112 84 0.0 0.0 0.00 0.00 0.00 45 1016.5
20260830200312 85 0.0 0.0 0.00 0.00 0.00 47 1016.4
20260830195512 84 0.0 0.0 0.00 0.00 0.00 47 1016.4
20260830194712 84 0.0 0.0 0.00 0.00 0.00 47 1016.3
20260830193912 84 0.0 0.0 0.00 0.00 0.00 46 1016.3
20260830193112 84 0.0 0.0 0.00 0.00 0.00 48 1016.3
20260830192312 84 0.0 0.0 0.00 0.00 0.00 46 1016.1
20260830191512 84 0.0 0.0 0.00 0.00 0.00 47 1016.0
20260830190712 84 0.0 0.0 0.00 0.00 0.00 47 1015.9
20260830185912 85 0.0 0.0 0.00 0.00 0.00 46 1015.8
20260830185112 84 0.0 0.0 0.00 0.00 0.00 45 1015.7
20260830184312 84 0.0 0.0 0.00 0.00 0.00 44 1015.6
20260830183512 85 0.0 0.0 0.00 0.00 0.00 43 1015.5
20260830182712 85 0.0 0.0 0.00 0.00 0.00 42 1015.5
20260830181912 85 0.0 0.0 0.00 0.00 0.00 42 1015.6
20260830181112 85 0.0 0.0 0.00 0.00 0.00 41 1015.6
20260830180312 85 0.0 0.0 0.00 0.00 0.00 40 1015.5
20260830175512 85 0.0 0.0 0.00 0.00 0.00 39 1015.4